SCP
0 0 0 0 0 0 0 0 0 0 0 0 0 0 0 0 0 0 0 0 0 0 0 0 0 0 0 0 0 0 0 0 0 0 0 0 0 0 0 0 0 0 0 0
0 0 0 0 0 0 0 0 0 0 0 0 0 0 0 0 0 0 0 0 0 0 0 0 0 0 0 0 0 0 0 0 0 0 0 0 0 0 0 0 0 0 0 0
0 0 0 0 0 0 0 0 0 0 0 0 0 0 0 0 0 0 0 0 0 0 0 0 0 0 0 0 0 0 0 0 0 0 0 0 0 0 0 0 0 0 0 0
0 0 0 0 0 0 0 0 0 0 0 0 0 0 0 0 0 0 0 0 0 0 0 0 0 0 0 0 0 0 0 0 0 0 0 0 0 0 0 0 0 0 0 0
0 0 0 0 0 0 0 0 0 0 0 0 0 0 0 0 0 0 0 0 0 0 0 0 0 0 0 0 0 0 0 0 0 0 0 0 0 0 0 0 0 0 0 0
0 0 0 0 0 0 0 0 0 0 0 0 0 0 -0 0 0 0 0 0 0 0 0 0 0 0 0 0 0 0 0 0 0 0 0 0 0 0 0 0 0 0 0 0
0 0 0 0 0 0 0 0 0 0 0 0 0 0 0 0 0 0 0 0 0 0 0 0 0 0 0 0 0 0 0 0 0 0 0 0 0 0 0 0 0 0 0 0
0 0 0 0 0 0 0 0 0 0 0 0 0 0 0 0 0 0 0 0 0 0 0 0 0 0 0 0 0 0 0 0 0 0 0 0 0 0 0 0 0 0 0 0
0 0 0 0 0 0 0 0 0 0 0 0 0 0 0 0 0 0 0 0 0 0 0 0 0 0 0 0 0 0 0 0 0 0 0 0 0 0 0 0 0 0 0 0
0 0 0 0 0 0 0 0 0 0 0 0 0 0 0 0 0 0 0 0 0 0 0 0 0 0 0 0 0 0 0 0 0 0 0 0 0 0 0 0 0 0 0 0
0 0 0 0 0 0 0 0 0 0 0 0 0 0 0 0 0 0 0 0 0 0 0 0 0 0 0 0 0 0 0 0 0 0 0 0 0 0 0 0 0 0 0 0
0 0 0 0 0 0 0 0 0 0 0 0 0 0 0 0 0 0 0 0 0 0 0 0 0 0 0 0 0 0 0 0 0 0 0 0 0 0 0 0 0 0 0 0
0 0 0 0 0 0 0 0 0 0 0 0 0 0 0 0 0 0 0 0 0 -0 0 0 0 0 0 0 0 0 0 0 0 0 0 0 0 0 0 0 0 0 0 0
0 0 0 0 0 0 0 0 0 0 0 0 0 0 0 0 0 0 0 0 0 0 0 0 0 0 0 0 0 0 0 0 0 0 0 0 0 0 0 0 0 0 0 0
0 0 0 0 0 0 0 0 0 0 0 0 0 0 0 0 0 0 0 0 0 0 0 0 0 0 0 0 0 0 0 0 0 0 0 0 0 0 0 0 0 0 0 0
0 0 0 0 0 0 0 0 0 0 0 0 0 0 0 0 0 0 0 0 0 0 0 0 0 0 0 0 0 0 0 0 0 0 0 0 0 0 0 0 0 0 0 0
0 0 0 0 0 0 0 0 0 0 0 0 0 0 0 0 0 0 0 0 0 0 0 0 0 0 0 0 0 0 0 0 0 0 0 0 0 0 0 0 0 0 0 0
0 0 0 0 0 0 0 0 0 0 0 0 0 0 0 0 0 0 0 0 0 0 0 0 0 0 0 0 0 0 0 0 0 0 0 0 0 0 0 0 0 0 0 0
0 0 0 0 0 0 0 0 0 0 0 0 0 0 0 0 0 0 0 0 0 0 0 0 0 0 0 0 0 0 0 0 0 0 0 0 0 0 0 0 0 0 0 0
0 0 0 0 0 0 0 0 0 0 0 0 0 0 0 0 0 0 0 0 0 0 0 0 0 0 0 0 0 0 0 0 0 0 0 0 0 0 0 0 0 0 0 0
0 0 0 0 0 0 0 0 0 0 0 0 0 0 0 0 0 0 0 0 0 0 0 0 0 0 0 0 0 0 0 0 0 0 0 0 0 0 0 0 0 0 0 0
0 0 0 0 0 0 0 0 0 0 0 0 0 0 0 0 0 0 0 0 0 0 0 0 0 0 0 0 0 0 0 0 0 0 0 0 0 0 0 0 0 0 0 0
0 0 0 0 0 0 0 0 0 0 0 0 0 0 0 0 0 0 0 0 0 0 0 0 0 0 0 0 0 0 0 0 0 0 0 0 0 0 0 0 0 0 0 0
0 0 0 0 0 0 0 0 0 0 0 0 0 0 0 0 0 0 0 0 0 0 0 0 0 0 0 0 0 0 0 0 0 0 0 0 0 0 0 0 0 0 0 0
0 0 0 0 0 0 0 0 0 0 0 0 0 0 0 0 0 0 0 0 0 0 0 0 0 0 0 0 0 0 0 0 0 0 0 0 0 0 0 0 0 0 0 0
0 0 0 0 0 0 0 0 0 0 0 0 0 0 0 0 0 0 0 0 0 0 0 0 0 0 0 0 0 0 0 0 0 0 0 0 0 0 0 0 0 0 0 0
Wind_Speed_500mb
15 9 13 14 14 13 13 12 11 4 1 6 14 12 19 26 16 30 44 43 45 49 49 51 52 50 53 55 55 51 49 47 49 54 64 68 72 68 62 57 56 53 49 47
9 13 14 12 5 6 9 10 6 2 4 5 2 20 19 18 27 49 49 46 47 44 48 44 49 54 58 62 63 62 54 49 50 56 49 58 64 69 69 69 62 58 57 54
14 14 20 17 10 11 7 12 10 9 5 4 2 15 11 15 38 46 54 62 61 60 52 48 48 53 52 64 65 65 62 54 51 52 47 50 53 62 63 67 70 70 63 59
12 8 22 12 12 12 10 6 12 15 9 9 2 11 9 7 17 13 55 69 72 66 58 54 49 53 56 58 59 61 61 62 57 58 57 58 58 63 62 61 60 65 69 69
14 18 14 10 15 17 10 9 14 8 9 6 3 3 15 1 10 20 43 51 64 72 56 54 48 52 57 61 60 61 63 65 65 68 69 67 67 64 60 52 49 48 55 65
8 7 16 15 6 12 18 13 17 10 7 5 12 11 11 8 16 13 20 40 34 36 49 49 48 47 58 59 62 61 63 63 64 68 71 73 74 74 65 54 52 49 50 54
4 2 4 11 15 9 12 14 5 3 3 11 2 2 15 13 18 14 19 30 24 28 35 43 45 47 55 59 59 59 61 62 66 71 77 78 74 69 61 52 52 55 53 50
13 9 15 9 13 16 14 16 11 14 9 8 1 14 12 15 22 37 17 13 15 21 25 28 32 35 42 49 54 59 63 63 65 72 78 76 75 72 60 49 53 56 56 48
11 4 4 7 9 20 10 10 12 13 5 6 9 13 17 20 16 10 9 11 23 24 24 22 23 27 30 33 32 32 33 35 36 40 48 56 63 68 64 52 52 50 47 44
13 9 5 7 11 4 12 17 7 5 8 7 9 10 11 5 18 7 12 22 23 27 26 23 24 26 26 26 25 23 23 24 25 26 30 36 45 53 54 51 52 48 46 44
11 8 4 7 13 16 8 7 6 10 10 10 4 11 14 17 9 13 18 22 27 28 24 25 26 26 27 27 27 26 26 24 25 27 29 30 34 41 45 45 45 47 44 43
6 11 8 10 3 6 8 15 17 10 10 6 5 12 9 5 7 8 10 4 9 22 22 24 25 26 27 28 30 30 28 27 27 27 30 34 34 37 40 45 40 39 41 41
15 1 7 9 9 5 11 8 9 11 6 12 7 9 5 6 11 14 14 10 6 8 15 19 24 27 31 35 35 34 33 32 30 28 28 31 40 43 36 32 34 35 37 38
31 7 18 27 13 16 15 19 14 16 11 11 31 7 2 5 9 10 9 5 5 10 16 21 27 29 33 35 35 36 35 34 31 31 29 30 30 29 29 30 31 31 30 30
17 12 8 4 13 13 9 16 22 25 25 23 28 31 16 17 13 10 9 13 17 24 30 34 36 36 38 38 38 38 35 33 32 32 30 29 30 31 32 32 33 32 32 31
1 3 7 4 7 10 10 24 37 45 28 18 8 23 13 11 15 9 17 24 32 39 46 47 49 47 46 45 42 39 38 35 34 32 31 32 33 34 35 36 36 36 33 31
15 12 7 10 5 10 13 22 20 18 15 25 28 47 12 9 12 17 25 29 37 42 44 48 51 55 55 51 44 42 40 37 36 36 35 35 35 36 36 35 35 33 30 27
12 12 5 6 6 9 15 8 23 25 16 27 27 8 11 9 11 19 20 25 33 38 43 44 46 53 55 53 49 45 43 41 41 41 41 41 41 41 39 37 34 32 30 25
4 11 8 11 7 9 10 8 15 17 21 25 23 10 14 11 9 8 4 15 25 32 34 36 39 41 46 53 53 50 49 47 46 46 45 44 43 43 42 39 35 31 26 22
9 10 14 6 12 18 10 7 16 11 16 17 19 15 15 18 6 7 10 15 20 24 28 35 36 35 38 45 53 54 53 51 50 51 51 48 46 42 39 35 32 27 23 17
6 5 15 7 6 14 13 11 25 16 11 21 30 29 24 8 9 3 11 19 27 32 30 28 30 32 35 39 49 55 54 53 53 53 52 50 48 44 40 37 32 24 13 4
12 13 8 7 6 16 21 15 20 9 21 35 28 23 14 10 6 5 9 17 24 30 32 29 26 29 32 38 47 53 53 53 53 52 50 50 47 42 37 28 19 9 2 7
6 11 12 15 11 3 25 8 27 21 39 25 19 14 11 8 7 13 17 18 24 28 31 31 29 30 32 37 45 48 51 55 57 56 54 52 47 39 28 18 10 6 5 11
5 6 7 9 7 10 25 27 24 27 23 18 14 10 10 12 15 21 26 29 31 30 29 29 29 30 31 36 41 42 48 51 52 55 56 54 44 32 18 14 13 18 20 29
7 19 13 1 3 18 15 20 22 21 18 14 10 8 11 19 24 29 33 38 37 35 32 31 32 32 33 37 41 46 51 54 55 53 47 40 29 22 23 28 25 27 35 30
11 12 10 8 31 10 26 34 28 23 15 9 5 1 6 13 20 26 31 35 38 40 38 37 35 35 38 41 45 49 51 52 52 49 43 31 29 34 31 30 37 36 32 28
Wind_Direction_500mb
162 129 180 174 178 178 168 156 169 247 323 152 208 252 238 241 230 228 232 230 231 238 244 242 235 236 239 236 237 236 235 236 234 234 222 225 228 230 233 235 238 239 240 242
84 194 202 166 141 154 166 154 175 29 55 151 154 259 258 243 239 236 236 233 234 237 237 235 229 228 233 236 237 235 239 241 242 242 244 235 233 233 235 237 238 239 238 241
156 205 166 159 163 186 209 167 185 172 132 63 329 291 252 259 238 242 244 245 247 243 238 232 232 229 230 231 232 236 236 242 246 248 246 244 237 238 237 236 237 239 243 243
176 187 164 156 174 136 197 196 137 140 125 201 94 270 283 264 267 232 244 241 241 239 238 235 238 232 225 229 230 233 237 241 243 247 248 247 247 245 248 244 245 242 244 246
212 156 138 168 171 159 201 142 137 113 90 81 305 77 271 10 286 253 248 243 242 239 239 239 241 235 227 222 224 229 231 235 238 241 246 249 249 254 257 258 258 254 248 247
173 150 159 170 88 155 138 90 45 49 70 297 217 168 269 205 215 254 257 250 245 236 229 231 230 228 222 219 220 226 230 232 236 243 245 247 248 249 251 253 256 251 251 251
87 343 127 132 90 9 121 102 35 14 332 224 62 195 245 251 243 227 269 259 239 233 221 217 215 215 217 222 227 231 235 238 241 241 244 246 248 248 249 251 253 254 256 253
154 198 168 159 154 167 163 156 156 181 202 230 0 236 242 239 274 254 250 259 222 202 201 209 218 226 232 236 241 246 249 251 247 247 245 243 245 249 246 239 245 253 256 253
137 187 73 89 144 153 207 181 153 106 27 63 223 288 289 287 262 254 188 209 208 206 212 226 239 240 239 242 243 244 246 247 245 244 244 242 241 241 243 238 232 247 253 246
184 111 315 161 113 40 183 153 88 19 129 252 269 271 236 307 270 178 225 219 208 210 215 228 242 248 246 245 245 245 245 242 241 243 243 240 235 233 231 227 229 235 243 243
122 101 228 154 209 157 131 172 97 123 156 172 225 263 224 231 257 251 234 242 233 222 228 240 250 251 250 250 251 251 254 255 250 243 240 239 236 231 227 221 230 235 236 234
135 116 151 184 274 229 166 178 172 163 222 246 166 256 348 237 116 99 68 93 206 220 235 248 253 255 256 257 257 258 259 259 257 252 244 238 227 220 221 230 224 228 228 234
180 133 84 17 345 299 195 169 127 96 68 202 151 248 303 58 60 84 85 86 131 199 236 251 254 255 255 258 262 264 263 260 254 247 238 232 229 230 224 216 219 222 229 235
149 144 181 191 190 143 183 185 174 164 189 169 230 152 193 134 129 73 46 343 305 285 278 274 265 264 262 262 259 257 256 255 252 246 231 218 213 211 204 205 209 214 215 218
149 158 162 119 154 137 153 173 179 204 200 191 241 238 190 218 229 263 312 301 296 297 294 288 280 274 269 260 254 251 250 247 241 236 231 219 209 201 198 198 200 203 205 204
105 173 117 345 139 144 172 201 203 215 217 257 293 268 173 193 171 214 282 289 284 289 294 292 282 277 269 262 257 252 247 243 238 229 221 212 205 199 195 192 190 188 188 189
138 131 106 211 115 89 295 201 193 208 207 214 232 245 169 157 213 255 268 279 283 284 287 289 288 281 274 265 257 250 244 237 229 223 214 207 201 197 192 189 187 185 187 190
133 105 84 133 104 193 267 202 178 192 202 215 256 101 151 156 223 275 289 283 285 284 280 279 282 284 276 262 253 244 238 231 225 218 211 204 200 197 194 192 190 188 187 187
42 125 108 153 191 279 279 214 149 161 243 221 232 159 163 218 259 237 239 320 315 306 295 295 285 278 273 258 248 240 232 226 220 215 210 205 201 198 196 194 191 187 182 180
46 69 150 144 162 218 210 204 161 110 262 193 179 152 150 149 125 250 317 317 323 320 320 286 282 283 274 255 243 238 231 224 218 213 209 204 200 197 194 188 183 180 173 166
131 65 167 168 178 282 251 173 142 160 244 155 161 150 147 138 168 214 322 332 336 333 326 312 295 277 266 251 239 231 228 223 216 210 206 201 196 192 187 181 171 166 167 193
157 141 176 106 118 251 177 123 162 192 124 143 145 148 151 154 202 277 326 340 340 334 327 315 291 274 261 243 234 226 224 219 212 208 203 197 190 182 176 177 178 188 6 1
186 171 168 176 203 182 164 152 138 139 144 157 165 177 198 224 263 303 319 321 327 321 314 307 296 277 258 240 230 231 226 216 210 204 198 192 185 183 188 198 223 259 239 259
280 158 146 104 250 143 130 132 146 137 147 161 189 206 241 273 297 305 307 310 309 307 301 296 286 273 258 239 231 226 227 217 209 201 192 187 186 187 194 183 196 237 228 237
181 136 146 335 39 114 141 152 155 157 161 167 185 222 264 285 294 298 300 297 296 294 290 287 280 267 252 241 231 223 218 213 204 194 191 194 201 195 196 238 222 223 234 239
185 161 169 203 178 143 166 150 145 139 130 125 121 57 328 312 307 302 301 299 294 291 286 277 267 258 247 237 228 219 211 204 197 196 198 215 222 220 224 217 228 232 237 243
Wind_Speed_850mb
15 9 13 14 14 13 13 12 11 4 1 6 14 12 19 26 16 30 44 43 45 49 49 51 52 50 53 55 55 51 49 47 49 54 64 68 72 68 62 57 56 53 49 47
9 13 14 12 5 6 9 10 6 2 4 5 2 20 19 18 27 49 49 46 47 44 48 44 49 54 58 62 63 62 54 49 50 56 49 58 64 69 69 69 62 58 57 54
14 14 20 17 10 11 7 12 10 9 5 4 2 15 11 15 38 46 54 62 61 60 52 48 48 53 52 64 65 65 62 54 51 52 47 50 53 62 63 67 70 70 63 59
12 8 22 12 12 12 10 6 12 15 9 9 2 11 9 7 17 13 55 69 72 66 58 54 49 53 56 58 59 61 61 62 57 58 57 58 58 63 62 61 60 65 69 69
14 18 14 10 15 17 10 9 14 8 9 6 3 3 15 1 10 20 43 51 64 72 56 54 48 52 57 61 60 61 63 65 65 68 69 67 67 64 60 52 49 48 55 65
8 7 16 15 6 12 18 13 17 10 7 5 12 11 11 8 16 13 20 40 34 36 49 49 48 47 58 59 62 61 63 63 64 68 71 73 74 74 65 54 52 49 50 54
4 2 4 11 15 9 12 14 5 3 3 11 2 2 15 13 18 14 19 30 24 28 35 43 45 47 55 59 59 59 61 62 66 71 77 78 74 69 61 52 52 55 53 50
13 9 15 9 13 16 14 16 11 14 9 8 1 14 12 15 22 37 17 13 15 21 25 28 32 35 42 49 54 59 63 63 65 72 78 76 75 72 60 49 53 56 56 48
11 4 4 7 9 20 10 10 12 13 5 6 9 13 17 20 16 10 9 11 23 24 24 22 23 27 30 33 32 32 33 35 36 40 48 56 63 68 64 52 52 50 47 44
13 9 5 7 11 4 12 17 7 5 8 7 9 10 11 5 18 7 12 22 23 27 26 23 24 26 26 26 25 23 23 24 25 26 30 36 45 53 54 51 52 48 46 44
11 8 4 7 13 16 8 7 6 10 10 10 4 11 14 17 9 13 18 22 27 28 24 25 26 26 27 27 27 26 26 24 25 27 29 30 34 41 45 45 45 47 44 43
6 11 8 10 3 6 8 15 17 10 10 6 5 12 9 5 7 8 10 4 9 22 22 24 25 26 27 28 30 30 28 27 27 27 30 34 34 37 40 45 40 39 41 41
15 1 7 9 9 5 11 8 9 11 6 12 7 9 5 6 11 14 14 10 6 8 15 19 24 27 31 35 35 34 33 32 30 28 28 31 40 43 36 32 34 35 37 38
31 7 18 27 13 16 15 19 14 16 11 11 31 7 2 5 9 10 9 5 5 10 16 21 27 29 33 35 35 36 35 34 31 31 29 30 30 29 29 30 31 31 30 30
17 12 8 4 13 13 9 16 22 25 25 23 28 31 16 17 13 10 9 13 17 24 30 34 36 36 38 38 38 38 35 33 32 32 30 29 30 31 32 32 33 32 32 31
1 3 7 4 7 10 10 24 37 45 28 18 8 23 13 11 15 9 17 24 32 39 46 47 49 47 46 45 42 39 38 35 34 32 31 32 33 34 35 36 36 36 33 31
15 12 7 10 5 10 13 22 20 18 15 25 28 47 12 9 12 17 25 29 37 42 44 48 51 55 55 51 44 42 40 37 36 36 35 35 35 36 36 35 35 33 30 27
12 12 5 6 6 9 15 8 23 25 16 27 27 8 11 9 11 19 20 25 33 38 43 44 46 53 55 53 49 45 43 41 41 41 41 41 41 41 39 37 34 32 30 25
4 11 8 11 7 9 10 8 15 17 21 25 23 10 14 11 9 8 4 15 25 32 34 36 39 41 46 53 53 50 49 47 46 46 45 44 43 43 42 39 35 31 26 22
9 10 14 6 12 18 10 7 16 11 16 17 19 15 15 18 6 7 10 15 20 24 28 35 36 35 38 45 53 54 53 51 50 51 51 48 46 42 39 35 32 27 23 17
6 5 15 7 6 14 13 11 25 16 11 21 30 29 24 8 9 3 11 19 27 32 30 28 30 32 35 39 49 55 54 53 53 53 52 50 48 44 40 37 32 24 13 4
12 13 8 7 6 16 21 15 20 9 21 35 28 23 14 10 6 5 9 17 24 30 32 29 26 29 32 38 47 53 53 53 53 52 50 50 47 42 37 28 19 9 2 7
6 11 12 15 11 3 25 8 27 21 39 25 19 14 11 8 7 13 17 18 24 28 31 31 29 30 32 37 45 48 51 55 57 56 54 52 47 39 28 18 10 6 5 11
5 6 7 9 7 10 25 27 24 27 23 18 14 10 10 12 15 21 26 29 31 30 29 29 29 30 31 36 41 42 48 51 52 55 56 54 44 32 18 14 13 18 20 29
7 19 13 1 3 18 15 20 22 21 18 14 10 8 11 19 24 29 33 38 37 35 32 31 32 32 33 37 41 46 51 54 55 53 47 40 29 22 23 28 25 27 35 30
11 12 10 8 31 10 26 34 28 23 15 9 5 1 6 13 20 26 31 35 38 40 38 37 35 35 38 41 45 49 51 52 52 49 43 31 29 34 31 30 37 36 32 28
Wind_Direction_850mb
162 129 180 174 178 178 168 156 169 247 323 152 208 252 238 241 230 228 232 230 231 238 244 242 235 236 239 236 237 236 235 236 234 234 222 225 228 230 233 235 238 239 240 242
84 194 202 166 141 154 166 154 175 29 55 151 154 259 258 243 239 236 236 233 234 237 237 235 229 228 233 236 237 235 239 241 242 242 244 235 233 233 235 237 238 239 238 241
156 205 166 159 163 186 209 167 185 172 132 63 329 291 252 259 238 242 244 245 247 243 238 232 232 229 230 231 232 236 236 242 246 248 246 244 237 238 237 236 237 239 243 243
176 187 164 156 174 136 197 196 137 140 125 201 94 270 283 264 267 232 244 241 241 239 238 235 238 232 225 229 230 233 237 241 243 247 248 247 247 245 248 244 245 242 244 246
212 156 138 168 171 159 201 142 137 113 90 81 305 77 271 10 286 253 248 243 242 239 239 239 241 235 227 222 224 229 231 235 238 241 246 249 249 254 257 258 258 254 248 247
173 150 159 170 88 155 138 90 45 49 70 297 217 168 269 205 215 254 257 250 245 236 229 231 230 228 222 219 220 226 230 232 236 243 245 247 248 249 251 253 256 251 251 251
87 343 127 132 90 9 121 102 35 14 332 224 62 195 245 251 243 227 269 259 239 233 221 217 215 215 217 222 227 231 235 238 241 241 244 246 248 248 249 251 253 254 256 253
154 198 168 159 154 167 163 156 156 181 202 230 0 236 242 239 274 254 250 259 222 202 201 209 218 226 232 236 241 246 249 251 247 247 245 243 245 249 246 239 245 253 256 253
137 187 73 89 144 153 207 181 153 106 27 63 223 288 289 287 262 254 188 209 208 206 212 226 239 240 239 242 243 244 246 247 245 244 244 242 241 241 243 238 232 247 253 246
184 111 315 161 113 40 183 153 88 19 129 252 269 271 236 307 270 178 225 219 208 210 215 228 242 248 246 245 245 245 245 242 241 243 243 240 235 233 231 227 229 235 243 243
122 101 228 154 209 157 131 172 97 123 156 172 225 263 224 231 257 251 234 242 233 222 228 240 250 251 250 250 251 251 254 255 250 243 240 239 236 231 227 221 230 235 236 234
135 116 151 184 274 229 166 178 172 163 222 246 166 256 348 237 116 99 68 93 206 220 235 248 253 255 256 257 257 258 259 259 257 252 244 238 227 220 221 230 224 228 228 234
180 133 84 17 345 299 195 169 127 96 68 202 151 248 303 58 60 84 85 86 131 199 236 251 254 255 255 258 262 264 263 260 254 247 238 232 229 230 224 216 219 222 229 235
149 144 181 191 190 143 183 185 174 164 189 169 230 152 193 134 129 73 46 343 305 285 278 274 265 264 262 262 259 257 256 255 252 246 231 218 213 211 204 205 209 214 215 218
149 158 162 119 154 137 153 173 179 204 200 191 241 238 190 218 229 263 312 301 296 297 294 288 280 274 269 260 254 251 250 247 241 236 231 219 209 201 198 198 200 203 205 204
105 173 117 345 139 144 172 201 203 215 217 257 293 268 173 193 171 214 282 289 284 289 294 292 282 277 269 262 257 252 247 243 238 229 221 212 205 199 195 192 190 188 188 189
138 131 106 211 115 89 295 201 193 208 207 214 232 245 169 157 213 255 268 279 283 284 287 289 288 281 274 265 257 250 244 237 229 223 214 207 201 197 192 189 187 185 187 190
133 105 84 133 104 193 267 202 178 192 202 215 256 101 151 156 223 275 289 283 285 284 280 279 282 284 276 262 253 244 238 231 225 218 211 204 200 197 194 192 190 188 187 187
42 125 108 153 191 279 279 214 149 161 243 221 232 159 163 218 259 237 239 320 315 306 295 295 285 278 273 258 248 240 232 226 220 215 210 205 201 198 196 194 191 187 182 180
46 69 150 144 162 218 210 204 161 110 262 193 179 152 150 149 125 250 317 317 323 320 320 286 282 283 274 255 243 238 231 224 218 213 209 204 200 197 194 188 183 180 173 166
131 65 167 168 178 282 251 173 142 160 244 155 161 150 147 138 168 214 322 332 336 333 326 312 295 277 266 251 239 231 228 223 216 210 206 201 196 192 187 181 171 166 167 193
157 141 176 106 118 251 177 123 162 192 124 143 145 148 151 154 202 277 326 340 340 334 327 315 291 274 261 243 234 226 224 219 212 208 203 197 190 182 176 177 178 188 6 1
186 171 168 176 203 182 164 152 138 139 144 157 165 177 198 224 263 303 319 321 327 321 314 307 296 277 258 240 230 231 226 216 210 204 198 192 185 183 188 198 223 259 239 259
280 158 146 104 250 143 130 132 146 137 147 161 189 206 241 273 297 305 307 310 309 307 301 296 286 273 258 239 231 226 227 217 209 201 192 187 186 187 194 183 196 237 228 237
181 136 146 335 39 114 141 152 155 157 161 167 185 222 264 285 294 298 300 297 296 294 290 287 280 267 252 241 231 223 218 213 204 194 191 194 201 195 196 238 222 223 234 239
185 161 169 203 178 143 166 150 145 139 130 125 121 57 328 312 307 302 301 299 294 291 286 277 267 258 247 237 228 219 211 204 197 196 198 215 222 220 224 217 228 232 237 243